« Back
NWS Peachtree City, Ga » Text Product » GA Regional Weather Roundup


Printer-friendly Version
Current Version              Previous Versions:   1  2  3  4  5  6  7  8  9  

Regional Weather Roundup

220
ASUS42 KFFC 300303
RWRGA
WEATHER ROUNDUP FOR GEORGIA
NATIONAL WEATHER SERVICE PEACHTREE CITY GA
1100 PM EDT MON AUG 29 2016

NOTE: "FAIR" INDICATES FEW OR NO CLOUDS BELOW 12,000 FEET WITH NO
SIGNIFICANT WEATHER AND/OR OBSTRUCTIONS TO VISIBILITY.

* = USE WITH CAUTION. THE STATIONS MARKED WITH AN ASTERISK MAY NOT
REPORT WEATHER SUCH AS PRECIPITATION, FOG, OR THUNDER AND ARE NOT
QUALITY CONTROLLED BY NWS.

THE REMARK "TC" DENOTES TEMPERATURE READING IN DEGREES CELSIUS.

GAZ001>058-300400-
NORTH GEORGIA

CITY           SKY/WX    TMP DP  RH WIND       PRES   REMARKS
ATLANTA        PTCLDY    82  66  58 NE12      30.09S
ATHENS         CLEAR     73  69  87 CALM      30.10R
CHAMBLEE       CLEAR     79  64  60 CALM      30.10S
PEACHTREE CITY CLEAR     75  69  81 S3        30.09R
ROME           CLEAR     75  68  78 NW3       30.09R
WEST ATLANTA   CLEAR     77  67  71 CALM      30.09S
GAINESVILLE    CLEAR     78  61  55 E7        30.14S
CARTERSVILLE   CLEAR     73  66  78 CALM      30.10S


CITY           SKY/WX    TMP DP  RH WIND       PRES   REMARKS
DALTON*        CLEAR     72  68  88 CALM      30.10S
MARIETTA       CLEAR     79  67  65 NE2       30.10S
KENNESAW*      CLEAR     77  64  65 E3        30.07S
CANTON*        CLEAR    N/A N/A N/A CALM      30.14S
BLAIRSVILLE*     N/A    N/A N/A N/A MISG      30.18R
$$

GAZ059>098-102>109-300400-
CENTRAL GEORGIA

CITY           SKY/WX    TMP DP  RH WIND       PRES   REMARKS
AUGUSTA-BUSH   CLEAR     74  72  93 CALM      30.07R
AUGUSTA-DANIEL CLEAR     78  72  81 SE3       30.09R
COLUMBUS       CLEAR     79  67  66 E8        30.04S
MACON          PTCLDY    74  70  87 E3        30.05F
ROBINS AFB     PTCLDY    74  72  93 VRB5      30.05S


CITY           SKY/WX    TMP DP  RH WIND       PRES   REMARKS
LAGRANGE*      PTCLDY    80  73  79 CALM      30.07R
MILLEDGEVILLE* PTCLDY    79  72  78 CALM      30.07R
$$

GAZ099>101-110>166-300400-
SOUTH GEORGIA

CITY           SKY/WX    TMP DP  RH WIND       PRES   REMARKS
SAVANNAH       PTCLDY    76  72  87 NE5       30.06R
VALDOSTA       CLEAR     78  74  87 CALM      30.01R
ALMA           PTCLDY    77  72  84 E3        30.03R
ST SIMONS      PTCLDY    83  74  74 E12       30.02S
FT STEWART     CLEAR     75  73  91 NE2       30.02F
ALBANY         CLEAR     81  71  71 NE6       30.03R
HUNTER AFB     PTCLDY    77  77 100 VRB5      30.02S
MOODY AFB      CLEAR     77  69  76 NE5       30.00S
BRUNSWICK      CLEAR     79  77  94 E6        30.03F


CITY           SKY/WX    TMP DP  RH WIND       PRES   REMARKS
BAINBRIDGE*    CLEAR     79  72  78 CALM      29.99S
MOULTRIE*      CLEAR     81  70  69 SE3       30.01S
VIDALIA*       PTCLDY    79  75  89 E5        30.07R
WAYCROSS*        N/A     80  77  91 E5        30.02S
DOUGLAS*       CLEAR     79  70  73 E5        30.04S
$$




USA.gov is the U.S. government's official web portal to all federal, state and local government web resources and services.